Monarch Pass, CO

2:57 PM MDT on March 24, 2017 (GMT -0600)
Monarch Pass

Weather History for KMYP - November, 2013

Change the Weather History Date:

Friday, November 29, 2013

  Actual Average (KGUC) Record (KGUC)
Temperature  
Mean Temperature 20 °F -  
Max Temperature 23 °F 31 °F 51 °F (2012)
Min Temperature 17 °F 7 °F -2 °F (2003)
Degree Days  
Heating Degree Days 45    
Moisture  
Dew Point 11 °F    
Average Humidity 68    
Maximum Humidity 86    
Minimum Humidity 46    
Precipitation  
Precipitation 0.00 in - - ()
Sea Level Pressure  
Sea Level Pressure 30.43 in    
Wind  
Wind Speed 29 mph (WSW)    
Max Wind Speed 34 mph    
Max Gust Speed 41 mph    
Visibility 10 miles    
Events      
Averages and records for this station are not official NWS values.
T = Trace of Precipitation, MM = Missing Value Source: NWS Daily Summary

Daily Weather History Graph

Daily Weather History Graph

Search for Another Location

Airport or City:

Trip Planner

Search our weather history database for the weather conditions in past years. The results will help you decide how hot, cold, wet, or windy it might be!

Date:

Astronomy

Nov. 29, 2013 Rise Set
Actual Time 7:01 AM MST 4:45 PM MST
Civil Twilight 6:32 AM MST 5:14 PM MST
Nautical Twilight 5:59 AM MST 5:46 PM MST
Astronomical Twilight 5:27 AM MST 6:18 PM MST
Moon 3:12 AM MST (11/29) 2:29 PM MST (11/29)
Length of Visible Light 10h 42m
Length of Day
9h 44m
Waning Crescent, 13% of the Moon is Illuminated
Nov 29
Waning Crescent
Dec 2
New
Dec 9
First Quarter
Dec 17
Full
Dec 25
Last Quarter

Hourly Weather History & Observations

Time (MST) Temp. Windchill Dew Point Humidity Pressure Visibility Wind Dir Wind Speed Gust Speed Precip Events Conditions
12:17 AM 23.0 °F - 5.0 °F 46% 30.41 in 10.0 mi North - - N/A   Scattered Clouds
12:37 AM 21.2 °F - 5.0 °F 50% 30.41 in 10.0 mi North - - N/A   Scattered Clouds
12:57 AM 21.2 °F - 5.0 °F 50% 30.40 in 10.0 mi North - - N/A   Clear
1:17 AM 21.2 °F - 5.0 °F 50% 30.40 in 10.0 mi North - - N/A   Clear
1:37 AM 21.2 °F - 5.0 °F 50% 30.40 in 10.0 mi North - - N/A   Clear
1:57 AM 19.4 °F - 5.0 °F 54% 30.40 in 10.0 mi North - - N/A   Clear
2:17 AM 21.2 °F - 6.8 °F 54% 30.40 in 10.0 mi North - - N/A   Clear
2:37 AM 21.2 °F - 6.8 °F 54% 30.40 in 10.0 mi North - - N/A   Clear
2:57 AM 21.2 °F - 8.6 °F 58% 30.40 in 10.0 mi North - - N/A   Clear
3:17 AM 19.4 °F - 8.6 °F 63% 30.40 in 10.0 mi North - - N/A   Clear
3:37 AM 19.4 °F - 6.8 °F 58% 30.40 in 10.0 mi North - - N/A   Clear
3:57 AM 19.4 °F - 6.8 °F 58% 30.39 in 10.0 mi North - - N/A   Clear
4:17 AM 19.4 °F - 6.8 °F 58% 30.40 in 10.0 mi North - - N/A   Clear
4:37 AM 19.4 °F - 6.8 °F 58% 30.40 in 10.0 mi North - - N/A   Clear
4:57 AM 19.4 °F - 6.8 °F 58% 30.40 in 10.0 mi North - - N/A   Clear
5:17 AM 19.4 °F - 6.8 °F 58% 30.40 in 10.0 mi North - - N/A   Clear
5:37 AM 19.4 °F - 6.8 °F 58% 30.41 in 10.0 mi North - - N/A   Clear
5:57 AM 19.4 °F - 6.8 °F 58% 30.41 in 10.0 mi North - - N/A   Clear
6:17 AM 19.4 °F - 8.6 °F 63% 30.41 in 10.0 mi North - - N/A   Clear
6:37 AM 17.6 °F - 8.6 °F 68% 30.41 in 10.0 mi North - - N/A   Clear
6:57 AM 17.6 °F - 8.6 °F 68% 30.41 in 10.0 mi North - - N/A   Clear
7:17 AM 19.4 °F - 8.6 °F 63% 30.42 in 10.0 mi North - - N/A   Clear
7:37 AM 19.4 °F - 8.6 °F 63% 30.42 in 10.0 mi North - - N/A   Clear
7:57 AM 19.4 °F - 8.6 °F 63% 30.42 in 10.0 mi North - - N/A   Clear
8:17 AM 19.4 °F - 8.6 °F 63% 30.43 in 10.0 mi North - - N/A   Clear
8:37 AM 19.4 °F - 8.6 °F 63% 30.43 in 10.0 mi North - - N/A   Clear
8:57 AM 19.4 °F 0.8 °F 8.6 °F 63% 30.44 in 10.0 mi West 28.8 mph - N/A   Clear
9:17 AM 19.4 °F 0.8 °F 10.4 °F 68% 30.45 in 10.0 mi West 28.8 mph 34.5 mph N/A   Clear
9:37 AM 19.4 °F 1.1 °F 10.4 °F 68% 30.45 in 10.0 mi West 27.6 mph - N/A   Clear
9:57 AM 19.4 °F 0.2 °F 10.4 °F 68% 30.45 in 10.0 mi West 31.1 mph 35.7 mph N/A   Clear
10:17 AM 21.2 °F 2.7 °F 10.4 °F 63% 30.46 in 10.0 mi West 31.1 mph 36.8 mph N/A   Clear
10:37 AM 21.2 °F 2.2 °F 10.4 °F 63% 30.45 in 10.0 mi West 33.4 mph 36.8 mph N/A   Clear
10:57 AM 21.2 °F 1.9 °F 10.4 °F 63% 30.44 in 10.0 mi West 34.5 mph 41.4 mph N/A   Clear
11:17 AM 21.2 °F 3.0 °F 12.2 °F 68% 30.45 in 10.0 mi West 29.9 mph 35.7 mph N/A   Clear
11:37 AM 21.2 °F 2.7 °F 12.2 °F 68% 30.44 in 10.0 mi West 31.1 mph 35.7 mph N/A   Clear
11:57 AM 21.2 °F 3.3 °F 14.0 °F 74% 30.43 in 10.0 mi WSW 28.8 mph 35.7 mph N/A   Clear
12:17 PM 23.0 °F 6.3 °F 14.0 °F 68% 30.43 in 10.0 mi SW 26.5 mph 35.7 mph N/A   Clear
12:37 PM 23.0 °F 5.1 °F 14.0 °F 68% 30.43 in 10.0 mi WSW 31.1 mph 40.3 mph N/A   Clear
12:57 PM 23.0 °F 6.0 °F 14.0 °F 68% 30.43 in 10.0 mi WSW 27.6 mph 33.4 mph N/A   Clear
1:17 PM 23.0 °F 6.0 °F 14.0 °F 68% 30.42 in 7.0 mi SW 27.6 mph 34.5 mph N/A   Clear
1:37 PM 23.0 °F 6.0 °F 14.0 °F 68% 30.43 in 10.0 mi WSW 27.6 mph 35.7 mph N/A   Clear
1:57 PM 23.0 °F 7.6 °F 15.8 °F 74% 30.43 in 10.0 mi WSW 21.9 mph 35.7 mph N/A   Clear
2:17 PM 23.0 °F 5.1 °F 15.8 °F 74% 30.42 in 10.0 mi WSW 31.1 mph 36.8 mph N/A   Clear
2:37 PM 23.0 °F 6.0 °F 15.8 °F 74% 30.42 in 10.0 mi WSW 27.6 mph 35.7 mph N/A   Clear
2:57 PM 23.0 °F 6.0 °F 15.8 °F 74% 30.42 in 10.0 mi SW 27.6 mph 34.5 mph N/A   Clear
3:17 PM 23.0 °F 7.2 °F 14.0 °F 68% 30.43 in 10.0 mi WSW 23.0 mph 31.1 mph N/A   Clear
3:37 PM 23.0 °F 8.0 °F 14.0 °F 68% 30.44 in 10.0 mi WSW 20.7 mph - N/A   Clear
3:57 PM 23.0 °F 8.0 °F 14.0 °F 68% 30.44 in 10.0 mi WSW 20.7 mph 28.8 mph N/A   Clear
4:17 PM 23.0 °F 6.9 °F 14.0 °F 68% 30.44 in 10.0 mi WSW 24.2 mph - N/A   Clear
4:37 PM 23.0 °F - 14.0 °F 68% 30.43 in 10.0 mi North - - N/A   Clear
4:57 PM 21.2 °F - 14.0 °F 74% 30.44 in 10.0 mi North - - N/A   Clear
5:17 PM 21.2 °F - 14.0 °F 74% 30.43 in 10.0 mi North - - N/A   Clear
5:37 PM 21.2 °F - 14.0 °F 74% 30.44 in 10.0 mi North - - N/A   Clear
5:57 PM 19.4 °F - 14.0 °F 80% 30.44 in 10.0 mi North - - N/A   Clear
6:17 PM 19.4 °F - 14.0 °F 80% 30.45 in 10.0 mi North - - N/A   Clear
6:37 PM 19.4 °F - 14.0 °F 80% 30.45 in 10.0 mi North - - N/A   Clear
6:57 PM 19.4 °F - 14.0 °F 80% 30.45 in 10.0 mi North - - N/A   Clear
7:17 PM 21.2 °F - 14.0 °F 74% 30.45 in 10.0 mi North - - N/A   Clear
7:37 PM 19.4 °F - 14.0 °F 80% 30.45 in 10.0 mi North - - N/A   Clear
7:57 PM 19.4 °F - 14.0 °F 80% 30.45 in 10.0 mi North - - N/A   Clear
8:17 PM 19.4 °F - 14.0 °F 80% 30.45 in 10.0 mi North - - N/A   Clear
8:37 PM 19.4 °F - 14.0 °F 80% 30.45 in 10.0 mi North - - N/A   Clear
8:57 PM 19.4 °F - 14.0 °F 80% 30.45 in 10.0 mi North - - N/A   Clear
9:17 PM 19.4 °F - 14.0 °F 80% 30.45 in 10.0 mi North - - N/A   Clear
9:37 PM 19.4 °F - 14.0 °F 80% 30.45 in 10.0 mi North - - N/A   Clear
9:57 PM 19.4 °F - 14.0 °F 80% 30.45 in 10.0 mi North - - N/A   Clear
10:17 PM 19.4 °F - 14.0 °F 80% 30.45 in 10.0 mi North - - N/A   Clear
10:37 PM 19.4 °F - 14.0 °F 80% 30.45 in 10.0 mi North - - N/A   Clear
10:57 PM 19.4 °F - 14.0 °F 80% 30.45 in 10.0 mi North - - N/A   Clear
11:17 PM 17.6 °F - 14.0 °F 86% 30.45 in 10.0 mi North - - N/A   Clear
11:37 PM 17.6 °F - 14.0 °F 86% 30.45 in 10.0 mi North - - N/A   Clear
11:57 PM 17.6 °F - 14.0 °F 86% 30.45 in 10.0 mi North - - N/A   Clear